QPF
0.00 0.00 0.00 0.00 0.00 0.00 0.00 0.00 0.00 0.00 0.00 0.00 0.00 0.00 0.00 0.00 0.00 0.00 0.00 0.00 0.00 0.00 0.00 0.00 0.00 0.00 0.00 0.00 0.00 0.01 0.01 0.01 0.00 0.00 0.00 0.00 0.00 0.00 0.00 0.00 0.00 0.00 0.00 0.00 0.01 0.01 0.01 0.01 0.01
0.00 0.00 0.00 0.00 0.00 0.00 0.00 0.00 0.00 0.00 0.00 0.00 0.00 0.01 0.01 0.00 0.00 0.00 0.00 0.00 0.00 0.00 0.00 0.00 0.00 0.00 0.00 0.00 0.00 0.00 0.00 0.00 0.00 0.00 0.00 0.00 0.00 0.00 0.00 0.00 0.00 0.00 0.00 0.00 0.00 0.01 0.01 0.01 0.00
0.00 0.00 0.00 0.00 0.00 0.00 0.00 0.00 0.00 0.00 0.00 0.00 0.01 0.01 0.01 0.00 0.00 0.00 0.00 0.00 0.00 0.00 0.00 0.00 0.00 0.00 0.00 0.00 0.00 0.00 0.00 0.00 0.00 0.00 0.00 0.00 0.00 0.00 0.00 0.00 0.00 0.00 0.00 0.00 0.00 0.00 0.00 0.00 0.00
0.00 0.00 0.00 0.00 0.00 0.00 0.00 0.00 0.00 0.00 0.00 0.00 0.01 0.01 0.00 0.00 0.00 0.00 0.00 0.00 0.00 0.00 0.00 0.00 0.00 0.00 0.00 0.00 0.00 0.00 0.00 0.00 0.00 0.00 0.00 0.00 0.00 0.00 0.00 0.00 0.00 0.00 0.00 0.00 0.00 0.00 0.00 0.00 0.00
0.00 0.00 0.00 0.00 0.00 0.00 0.00 0.00 0.00 0.00 0.00 0.00 0.00 0.01 0.01 0.00 0.00 0.00 0.00 0.00 0.00 0.00 0.00 0.00 0.00 0.00 0.00 0.00 0.00 0.00 0.00 0.00 0.00 0.00 0.00 0.00 0.00 0.00 0.00 0.00 0.00 0.00 0.00 0.00 0.00 0.00 0.00 0.00 0.00
0.00 0.00 0.00 0.00 0.00 0.00 0.00 0.00 0.00 0.00 0.00 0.00 0.00 0.01 0.01 0.01 0.00 0.00 0.00 0.00 0.00 0.00 0.00 0.00 0.00 0.00 0.00 0.00 0.00 0.00 0.00 0.00 0.00 0.00 0.00 0.00 0.00 0.00 0.00 0.00 0.00 0.00 0.00 0.00 0.00 0.00 0.00 0.00 0.01
0.00 0.00 0.00 0.00 0.00 0.00 0.00 0.00 0.00 0.00 0.00 0.00 0.01 0.00 0.01 0.01 0.01 0.00 0.00 0.00 0.00 0.00 0.00 0.00 0.00 0.00 0.00 0.00 0.00 0.00 0.00 0.00 0.00 0.00 0.00 0.00 0.00 0.00 0.00 0.00 0.00 0.01 0.01 0.01 0.00 0.00 0.00 0.00 0.00
0.00 0.00 0.00 0.00 0.00 0.00 0.00 0.00 0.00 0.00 0.00 0.00 0.01 0.01 0.01 0.01 0.01 0.01 0.00 0.02 0.02 0.00 0.00 0.00 0.00 0.00 0.00 0.00 0.00 0.00 0.00 0.00 0.00 0.00 0.00 0.00 0.00 0.00 0.00 0.00 0.00 0.00 0.01 0.01 0.01 0.01 0.01 0.00 0.00
0.00 0.00 0.00 0.00 0.00 0.00 0.00 0.00 0.00 0.00 0.00 0.00 0.00 0.00 0.00 0.00 0.00 0.01 0.01 0.01 0.01 0.00 0.00 0.01 0.00 0.01 0.01 0.01 0.01 0.00 0.00 0.01 0.00 0.00 0.00 0.00 0.01 0.01 0.01 0.00 0.01 0.01 0.01 0.01 0.01 0.01 0.01 0.00 0.00
0.00 0.00 0.00 0.00 0.00 0.00 0.00 0.00 0.00 0.00 0.00 0.00 0.00 0.00 0.00 0.00 0.01 0.01 0.01 0.01 0.01 0.01 0.01 0.01 0.01 0.02 0.02 0.02 0.02 0.02 0.01 0.01 0.01 0.01 0.01 0.01 0.02 0.02 0.01 0.01 0.01 0.01 0.01 0.01 0.01 0.01 0.01 0.01 0.01
0.00 0.00 0.00 0.00 0.00 0.00 0.00 0.00 0.00 0.00 0.00 0.00 0.01 0.01 0.01 0.01 0.00 0.01 0.01 0.01 0.01 0.01 0.01 0.01 0.01 0.01 0.02 0.03 0.03 0.03 0.03 0.04 0.03 0.04 0.05 0.05 0.05 0.04 0.03 0.03 0.02 0.02 0.02 0.02 0.03 0.02 0.01 0.02 0.01
0.00 0.00 0.00 0.00 0.00 0.00 0.00 0.00 0.00 0.00 0.00 0.01 0.01 0.01 0.02 0.01 0.00 0.01 0.01 0.01 0.01 0.02 0.02 0.02 0.02 0.02 0.03 0.05 0.05 0.05 0.06 0.06 0.05 0.05 0.05 0.07 0.09 0.07 0.04 0.04 0.04 0.04 0.04 0.04 0.03 0.03 0.02 0.02 0.01
0.00 0.00 0.00 0.00 0.00 0.00 0.00 0.00 0.00 0.00 0.00 0.00 0.01 0.01 0.01 0.01 0.01 0.01 0.01 0.01 0.01 0.01 0.01 0.02 0.02 0.02 0.03 0.04 0.05 0.06 0.07 0.10 0.11 0.12 0.11 0.12 0.11 0.08 0.06 0.04 0.06 0.06 0.05 0.04 0.03 0.03 0.03 0.03 0.02
0.00 0.00 0.00 0.00 0.00 0.00 0.00 0.00 0.00 0.00 0.00 0.00 0.00 0.00 0.00 0.01 0.01 0.01 0.01 0.01 0.01 0.01 0.02 0.02 0.04 0.03 0.03 0.04 0.05 0.05 0.06 0.07 0.12 0.16 0.15 0.15 0.14 0.10 0.08 0.07 0.06 0.06 0.06 0.06 0.06 0.04 0.05 0.05 0.05
0.00 0.00 0.00 0.00 0.00 0.00 0.00 0.00 0.00 0.00 0.00 0.00 0.00 0.00 0.00 0.01 0.01 0.01 0.02 0.02 0.02 0.03 0.06 0.09 0.06 0.04 0.03 0.04 0.05 0.05 0.07 0.06 0.07 0.09 0.10 0.09 0.09 0.11 0.11 0.10 0.09 0.09 0.09 0.09 0.09 0.08 0.08 0.07 0.06
0.00 0.00 0.00 0.00 0.00 0.00 0.00 0.00 0.00 0.00 0.00 0.00 0.00 0.00 0.00 0.01 0.01 0.02 0.02 0.02 0.02 0.02 0.03 0.05 0.04 0.04 0.07 0.07 0.08 0.07 0.11 0.11 0.07 0.06 0.07 0.08 0.09 0.12 0.12 0.12 0.12 0.11 0.10 0.09 0.11 0.10 0.09 0.10 0.09
0.00 0.00 0.00 0.00 0.00 0.00 0.00 0.00 0.00 0.00 0.00 0.00 0.00 0.00 0.00 0.01 0.01 0.01 0.01 0.01 0.02 0.03 0.03 0.03 0.04 0.05 0.08 0.12 0.14 0.09 0.08 0.12 0.09 0.06 0.07 0.07 0.08 0.11 0.14 0.15 0.16 0.14 0.12 0.11 0.12 0.13 0.14 0.13 0.12
0.00 0.00 0.00 0.00 0.00 0.00 0.00 0.00 0.00 0.00 0.00 0.00 0.00 0.00 0.01 0.01 0.01 0.01 0.01 0.01 0.01 0.02 0.03 0.05 0.07 0.06 0.06 0.06 0.06 0.06 0.06 0.08 0.09 0.09 0.09 0.07 0.10 0.10 0.12 0.18 0.20 0.20 0.18 0.16 0.15 0.16 0.17 0.14 0.14
0.00 0.00 0.00 0.00 0.00 0.00 0.00 0.00 0.00 0.00 0.00 0.00 0.00 0.00 0.01 0.01 0.01 0.01 0.01 0.01 0.01 0.02 0.03 0.04 0.06 0.06 0.06 0.05 0.04 0.04 0.05 0.07 0.07 0.11 0.13 0.11 0.12 0.13 0.15 0.17 0.19 0.20 0.21 0.18 0.18 0.20 0.21 0.19 0.20
0.00 0.00 0.00 0.00 0.00 0.00 0.00 0.00 0.00 0.00 0.00 0.00 0.00 0.00 0.00 0.01 0.01 0.01 0.01 0.01 0.01 0.01 0.02 0.03 0.03 0.04 0.05 0.04 0.04 0.04 0.05 0.06 0.07 0.09 0.10 0.11 0.13 0.15 0.18 0.20 0.22 0.25 0.27 0.23 0.20 0.21 0.23 0.23 0.23
0.00 0.00 0.00 0.00 0.00 0.00 0.00 0.00 0.00 0.00 0.00 0.00 0.00 0.00 0.00 0.00 0.00 0.00 0.01 0.01 0.01 0.01 0.01 0.02 0.02 0.03 0.04 0.04 0.04 0.04 0.04 0.04 0.06 0.10 0.13 0.13 0.13 0.14 0.15 0.16 0.18 0.20 0.24 0.25 0.22 0.21 0.23 0.23 0.22
0.00 0.00 0.00 0.00 0.00 0.00 0.00 0.00 0.00 0.00 0.00 0.00 0.00 0.00 0.00 0.00 0.00 0.01 0.01 0.01 0.01 0.01 0.01 0.01 0.01 0.02 0.03 0.03 0.04 0.03 0.03 0.03 0.04 0.06 0.09 0.10 0.11 0.13 0.14 0.15 0.16 0.18 0.19 0.20 0.23 0.24 0.23 0.24 0.22
0.00 0.00 0.00 0.00 0.00 0.00 0.00 0.00 0.00 0.00 0.00 0.00 0.00 0.00 0.00 0.00 0.00 0.00 0.01 0.01 0.01 0.01 0.01 0.01 0.01 0.02 0.02 0.02 0.03 0.04 0.03 0.03 0.04 0.05 0.06 0.07 0.08 0.10 0.12 0.13 0.14 0.17 0.19 0.20 0.20 0.22 0.23 0.23 0.21
0.00 0.00 0.00 0.00 0.00 0.00 0.00 0.00 0.00 0.00 0.00 0.00 0.00 0.00 0.00 0.00 0.00 0.01 0.01 0.01 0.01 0.01 0.00 0.01 0.02 0.02 0.02 0.03 0.03 0.04 0.04 0.04 0.05 0.05 0.05 0.06 0.07 0.08 0.09 0.10 0.10 0.12 0.15 0.18 0.19 0.20 0.23 0.23 0.24
0.00 0.00 0.00 0.00 0.00 0.00 0.00 0.00 0.00 0.00 0.00 0.00 0.00 0.00 0.00 0.00 0.01 0.01 0.01 0.01 0.01 0.01 0.01 0.01 0.01 0.02 0.02 0.02 0.04 0.04 0.04 0.05 0.06 0.07 0.07 0.08 0.08 0.08 0.08 0.08 0.07 0.09 0.12 0.14 0.16 0.18 0.20 0.23 0.25
0.00 0.00 0.00 0.00 0.00 0.00 0.00 0.00 0.00 0.00 0.00 0.00 0.00 0.00 0.00 0.00 0.01 0.01 0.01 0.01 0.01 0.01 0.01 0.01 0.01 0.02 0.02 0.02 0.04 0.05 0.04 0.04 0.06 0.06 0.07 0.07 0.08 0.07 0.07 0.08 0.08 0.10 0.11 0.11 0.13 0.17 0.22 0.26 0.29
0.00 0.00 0.00 0.00 0.00 0.00 0.00 0.00 0.00 0.00 0.00 0.00 0.00 0.00 0.01 0.01 0.01 0.01 0.01 0.01 0.01 0.01 0.01 0.01 0.01 0.01 0.02 0.02 0.04 0.05 0.05 0.05 0.06 0.06 0.08 0.09 0.08 0.08 0.07 0.06 0.07 0.09 0.09 0.08 0.09 0.13 0.19 0.24 0.28
0.00 0.00 0.00 0.00 0.00 0.00 0.00 0.00 0.00 0.00 0.00 0.00 0.00 0.00 0.01 0.01 0.01 0.01 0.01 0.00 0.01 0.02 0.02 0.01 0.01 0.02 0.02 0.02 0.03 0.04 0.04 0.04 0.06 0.07 0.08 0.09 0.09 0.08 0.07 0.05 0.04 0.05 0.07 0.09 0.09 0.11 0.15 0.17 0.19
0.00 0.00 0.00 0.00 0.00 0.00 0.01 0.01 0.00 0.00 0.00 0.00 0.00 0.00 0.00 0.00 0.00 0.01 0.01 0.01 0.00 0.01 0.02 0.02 0.03 0.03 0.03 0.03 0.03 0.04 0.05 0.05 0.06 0.07 0.08 0.07 0.07 0.08 0.07 0.06 0.05 0.05 0.06 0.08 0.10 0.10 0.12 0.14 0.15
0.00 0.00 0.00 0.01 0.01 0.01 0.01 0.01 0.00 0.00 0.00 0.00 0.00 0.00 0.00 0.00 0.00 0.01 0.01 0.01 0.01 0.01 0.02 0.02 0.03 0.03 0.04 0.04 0.03 0.04 0.05 0.08 0.08 0.07 0.08 0.08 0.07 0.07 0.08 0.06 0.06 0.06 0.07 0.07 0.08 0.07 0.07 0.08 0.09
MSLP
1011.73 1011.91 1012.17 1012.45 1012.69 1012.84 1012.86 1012.77 1012.59 1012.35 1012.09 1011.83 1011.58 1011.32 1011.06 1010.78 1010.49 1010.22 1010.01 1009.91 1009.98 1010.24 1010.68 1011.27 1011.95 1012.63 1013.25 1013.76 1014.15 1014.45 1014.69 1014.93 1015.23 1015.61 1016.06 1016.56 1017.04 1017.47 1017.80 1018.01 1018.12 1018.18 1018.23 1018.34 1018.51 1018.75 1019.04 1019.33 1019.56
1011.71 1011.97 1012.29 1012.59 1012.80 1012.88 1012.82 1012.60 1012.28 1011.91 1011.51 1011.15 1010.82 1010.52 1010.26 1010.01 1009.79 1009.61 1009.52 1009.55 1009.74 1010.11 1010.64 1011.30 1012.03 1012.75 1013.40 1013.93 1014.34 1014.65 1014.91 1015.17 1015.48 1015.86 1016.30 1016.76 1017.21 1017.58 1017.86 1018.03 1018.12 1018.18 1018.25 1018.39 1018.61 1018.90 1019.22 1019.53 1019.76
1011.81 1012.13 1012.47 1012.76 1012.93 1012.94 1012.76 1012.43 1011.99 1011.49 1010.99 1010.53 1010.15 1009.83 1009.58 1009.37 1009.22 1009.14 1009.15 1009.29 1009.59 1010.04 1010.65 1011.37 1012.14 1012.90 1013.57 1014.13 1014.56 1014.90 1015.18 1015.45 1015.76 1016.12 1016.53 1016.95 1017.34 1017.66 1017.89 1018.03 1018.12 1018.20 1018.31 1018.50 1018.77 1019.10 1019.44 1019.74 1019.95
1012.02 1012.37 1012.72 1012.98 1013.09 1013.02 1012.75 1012.32 1011.77 1011.17 1010.59 1010.08 1009.66 1009.34 1009.10 1008.95 1008.87 1008.87 1008.97 1009.20 1009.57 1010.08 1010.74 1011.49 1012.28 1013.05 1013.74 1014.32 1014.78 1015.15 1015.44 1015.73 1016.03 1016.38 1016.74 1017.11 1017.46 1017.74 1017.94 1018.08 1018.20 1018.32 1018.49 1018.73 1019.04 1019.39 1019.73 1020.00 1020.15
1012.29 1012.66 1012.99 1013.21 1013.26 1013.12 1012.77 1012.26 1011.64 1010.99 1010.36 1009.82 1009.39 1009.08 1008.88 1008.78 1008.77 1008.84 1009.00 1009.29 1009.70 1010.25 1010.91 1011.66 1012.45 1013.21 1013.90 1014.49 1014.97 1015.35 1015.67 1015.96 1016.26 1016.59 1016.92 1017.26 1017.57 1017.83 1018.04 1018.21 1018.37 1018.54 1018.77 1019.07 1019.40 1019.75 1020.07 1020.28 1020.37
1012.56 1012.91 1013.21 1013.38 1013.38 1013.18 1012.79 1012.24 1011.59 1010.91 1010.28 1009.74 1009.32 1009.04 1008.88 1008.83 1008.88 1009.00 1009.22 1009.54 1009.97 1010.51 1011.16 1011.88 1012.63 1013.36 1014.03 1014.60 1015.08 1015.47 1015.81 1016.11 1016.41 1016.73 1017.05 1017.38 1017.68 1017.95 1018.18 1018.39 1018.61 1018.85 1019.13 1019.46 1019.80 1020.14 1020.40 1020.55 1020.57
1012.76 1013.07 1013.32 1013.44 1013.40 1013.16 1012.75 1012.20 1011.55 1010.89 1010.28 1009.77 1009.39 1009.15 1009.04 1009.04 1009.13 1009.30 1009.55 1009.89 1010.31 1010.83 1011.43 1012.10 1012.79 1013.46 1014.09 1014.64 1015.11 1015.50 1015.84 1016.16 1016.47 1016.79 1017.11 1017.44 1017.76 1018.05 1018.32 1018.59 1018.85 1019.14 1019.47 1019.80 1020.14 1020.43 1020.63 1020.72 1020.67
1012.82 1013.07 1013.26 1013.34 1013.26 1013.02 1012.62 1012.08 1011.47 1010.86 1010.29 1009.82 1009.49 1009.29 1009.23 1009.28 1009.42 1009.63 1009.91 1010.25 1010.66 1011.14 1011.69 1012.28 1012.90 1013.51 1014.08 1014.59 1015.04 1015.43 1015.78 1016.10 1016.43 1016.76 1017.10 1017.44 1017.78 1018.10 1018.41 1018.71 1019.02 1019.34 1019.68 1020.01 1020.31 1020.56 1020.70 1020.73 1020.64
1012.73 1012.92 1013.05 1013.08 1012.98 1012.74 1012.37 1011.88 1011.32 1010.76 1010.25 1009.83 1009.55 1009.40 1009.38 1009.47 1009.66 1009.91 1010.20 1010.55 1010.94 1011.39 1011.87 1012.39 1012.94 1013.47 1013.99 1014.46 1014.88 1015.27 1015.62 1015.96 1016.30 1016.65 1017.00 1017.36 1017.72 1018.07 1018.40 1018.73 1019.06 1019.38 1019.71 1020.01 1020.28 1020.47 1020.58 1020.57 1020.47
1012.53 1012.64 1012.71 1012.70 1012.60 1012.37 1012.04 1011.60 1011.11 1010.60 1010.15 1009.78 1009.53 1009.42 1009.44 1009.56 1009.78 1010.05 1010.37 1010.72 1011.10 1011.51 1011.95 1012.41 1012.88 1013.36 1013.82 1014.25 1014.66 1015.03 1015.39 1015.74 1016.10 1016.46 1016.83 1017.20 1017.57 1017.93 1018.27 1018.60 1018.93 1019.24 1019.54 1019.82 1020.05 1020.21 1020.30 1020.29 1020.22
1012.28 1012.32 1012.34 1012.30 1012.19 1011.99 1011.69 1011.31 1010.87 1010.42 1010.01 1009.68 1009.46 1009.37 1009.40 1009.54 1009.78 1010.07 1010.39 1010.74 1011.11 1011.49 1011.89 1012.31 1012.74 1013.16 1013.58 1013.99 1014.38 1014.75 1015.11 1015.47 1015.84 1016.21 1016.59 1016.97 1017.34 1017.70 1018.04 1018.35 1018.66 1018.95 1019.23 1019.48 1019.69 1019.86 1019.96 1019.99 1019.98
1012.06 1012.04 1012.01 1011.95 1011.84 1011.66 1011.41 1011.08 1010.69 1010.28 1009.90 1009.59 1009.38 1009.29 1009.32 1009.46 1009.69 1009.98 1010.30 1010.64 1011.00 1011.36 1011.73 1012.11 1012.50 1012.90 1013.30 1013.69 1014.07 1014.44 1014.80 1015.17 1015.54 1015.92 1016.30 1016.68 1017.04 1017.39 1017.72 1018.02 1018.31 1018.59 1018.85 1019.10 1019.33 1019.52 1019.68 1019.79 1019.87
1011.93 1011.87 1011.81 1011.73 1011.63 1011.47 1011.25 1010.96 1010.62 1010.25 1009.89 1009.59 1009.37 1009.27 1009.28 1009.40 1009.61 1009.87 1010.17 1010.49 1010.81 1011.15 1011.49 1011.85 1012.22 1012.60 1012.98 1013.36 1013.74 1014.11 1014.48 1014.85 1015.22 1015.60 1015.98 1016.34 1016.70 1017.04 1017.36 1017.65 1017.94 1018.22 1018.49 1018.77 1019.05 1019.32 1019.57 1019.79 1019.99
1011.91 1011.83 1011.75 1011.67 1011.58 1011.44 1011.26 1011.01 1010.70 1010.36 1010.03 1009.73 1009.51 1009.39 1009.38 1009.46 1009.62 1009.84 1010.09 1010.37 1010.65 1010.95 1011.26 1011.59 1011.94 1012.31 1012.68 1013.06 1013.44 1013.81 1014.17 1014.54 1014.90 1015.27 1015.63 1015.99 1016.34 1016.68 1017.00 1017.30 1017.60 1017.91 1018.22 1018.56 1018.92 1019.29 1019.66 1020.02 1020.35
1012.00 1011.91 1011.82 1011.74 1011.66 1011.55 1011.40 1011.19 1010.92 1010.62 1010.32 1010.05 1009.84 1009.71 1009.67 1009.72 1009.83 1009.98 1010.17 1010.38 1010.61 1010.85 1011.12 1011.41 1011.74 1012.08 1012.45 1012.82 1013.19 1013.55 1013.90 1014.25 1014.59 1014.94 1015.29 1015.64 1015.99 1016.33 1016.66 1016.98 1017.31 1017.66 1018.04 1018.46 1018.91 1019.40 1019.91 1020.41 1020.88
1012.14 1012.03 1011.94 1011.87 1011.81 1011.73 1011.61 1011.45 1011.24 1010.99 1010.74 1010.52 1010.34 1010.22 1010.18 1010.20 1010.27 1010.36 1010.48 1010.61 1010.76 1010.93 1011.13 1011.38 1011.66 1011.98 1012.32 1012.67 1013.02 1013.36 1013.69 1014.01 1014.33 1014.65 1014.98 1015.32 1015.66 1016.00 1016.35 1016.70 1017.06 1017.46 1017.90 1018.40 1018.95 1019.56 1020.20 1020.84 1021.44
1012.25 1012.14 1012.06 1012.00 1011.95 1011.91 1011.83 1011.72 1011.58 1011.40 1011.23 1011.07 1010.96 1010.89 1010.87 1010.89 1010.93 1010.98 1011.03 1011.08 1011.15 1011.23 1011.36 1011.54 1011.77 1012.04 1012.34 1012.66 1012.97 1013.28 1013.57 1013.85 1014.13 1014.42 1014.72 1015.04 1015.37 1015.71 1016.06 1016.42 1016.81 1017.24 1017.72 1018.28 1018.92 1019.62 1020.37 1021.13 1021.86
1012.29 1012.19 1012.11 1012.07 1012.05 1012.03 1012.00 1011.95 1011.87 1011.78 1011.70 1011.63 1011.61 1011.62 1011.66 1011.71 1011.76 1011.79 1011.79 1011.77 1011.75 1011.75 1011.79 1011.89 1012.04 1012.26 1012.51 1012.78 1013.05 1013.31 1013.55 1013.79 1014.02 1014.27 1014.53 1014.82 1015.12 1015.44 1015.78 1016.13 1016.52 1016.95 1017.45 1018.03 1018.71 1019.47 1020.30 1021.15 1021.98
1012.24 1012.14 1012.08 1012.07 1012.07 1012.08 1012.09 1012.09 1012.07 1012.06 1012.07 1012.12 1012.20 1012.32 1012.45 1012.57 1012.65 1012.68 1012.66 1012.59 1012.51 1012.42 1012.38 1012.39 1012.47 1012.60 1012.79 1013.00 1013.22 1013.43 1013.63 1013.82 1014.01 1014.21 1014.43 1014.68 1014.94 1015.22 1015.52 1015.83 1016.17 1016.56 1017.03 1017.59 1018.25 1019.03 1019.90 1020.81 1021.73
1012.12 1012.04 1012.01 1012.02 1012.06 1012.10 1012.13 1012.16 1012.18 1012.23 1012.32 1012.46 1012.65 1012.88 1013.12 1013.33 1013.48 1013.55 1013.54 1013.44 1013.30 1013.15 1013.03 1012.95 1012.95 1013.01 1013.13 1013.29 1013.46 1013.62 1013.78 1013.94 1014.09 1014.25 1014.43 1014.63 1014.84 1015.06 1015.29 1015.53 1015.79 1016.10 1016.48 1016.97 1017.59 1018.33 1019.19 1020.14 1021.11
1011.97 1011.94 1011.96 1012.01 1012.07 1012.13 1012.17 1012.19 1012.23 1012.30 1012.43 1012.63 1012.91 1013.24 1013.58 1013.89 1014.13 1014.26 1014.28 1014.19 1014.03 1013.83 1013.63 1013.48 1013.40 1013.40 1013.45 1013.56 1013.69 1013.83 1013.97 1014.10 1014.24 1014.37 1014.52 1014.67 1014.83 1014.98 1015.12 1015.27 1015.42 1015.61 1015.88 1016.26 1016.78 1017.46 1018.28 1019.23 1020.24
1011.86 1011.91 1011.99 1012.10 1012.19 1012.24 1012.26 1012.25 1012.25 1012.29 1012.42 1012.64 1012.96 1013.36 1013.79 1014.20 1014.53 1014.73 1014.80 1014.74 1014.57 1014.34 1014.10 1013.89 1013.74 1013.68 1013.69 1013.76 1013.87 1014.00 1014.14 1014.28 1014.42 1014.55 1014.68 1014.80 1014.91 1014.99 1015.05 1015.08 1015.12 1015.18 1015.32 1015.57 1015.98 1016.57 1017.34 1018.27 1019.29
1011.85 1011.99 1012.17 1012.33 1012.44 1012.48 1012.45 1012.37 1012.29 1012.26 1012.33 1012.52 1012.85 1013.28 1013.77 1014.25 1014.66 1014.94 1015.07 1015.04 1014.88 1014.65 1014.37 1014.12 1013.93 1013.82 1013.80 1013.85 1013.96 1014.10 1014.27 1014.44 1014.60 1014.76 1014.89 1015.00 1015.08 1015.10 1015.08 1015.02 1014.94 1014.88 1014.90 1015.03 1015.33 1015.83 1016.54 1017.42 1018.45
1011.97 1012.22 1012.48 1012.70 1012.82 1012.83 1012.74 1012.57 1012.38 1012.24 1012.21 1012.34 1012.63 1013.06 1013.57 1014.10 1014.58 1014.92 1015.11 1015.13 1014.99 1014.76 1014.47 1014.19 1013.97 1013.83 1013.79 1013.84 1013.96 1014.14 1014.35 1014.57 1014.78 1014.97 1015.14 1015.25 1015.31 1015.30 1015.22 1015.09 1014.92 1014.77 1014.68 1014.72 1014.93 1015.35 1015.99 1016.85 1017.86
1012.19 1012.54 1012.88 1013.14 1013.27 1013.24 1013.07 1012.79 1012.49 1012.23 1012.10 1012.14 1012.37 1012.78 1013.30 1013.86 1014.37 1014.77 1015.01 1015.07 1014.97 1014.74 1014.45 1014.16 1013.92 1013.77 1013.73 1013.78 1013.93 1014.15 1014.40 1014.68 1014.95 1015.19 1015.39 1015.52 1015.59 1015.56 1015.46 1015.28 1015.07 1014.85 1014.70 1014.68 1014.83 1015.19 1015.78 1016.59 1017.57
1012.47 1012.89 1013.27 1013.55 1013.67 1013.60 1013.36 1012.99 1012.59 1012.23 1012.01 1011.97 1012.15 1012.53 1013.04 1013.62 1014.17 1014.61 1014.89 1014.98 1014.91 1014.71 1014.42 1014.13 1013.89 1013.73 1013.69 1013.76 1013.92 1014.17 1014.47 1014.80 1015.11 1015.40 1015.64 1015.80 1015.88 1015.87 1015.76 1015.57 1015.34 1015.11 1014.94 1014.89 1015.01 1015.33 1015.89 1016.66 1017.60
1012.73 1013.17 1013.56 1013.83 1013.92 1013.81 1013.52 1013.10 1012.63 1012.22 1011.94 1011.87 1012.03 1012.39 1012.90 1013.49 1014.06 1014.53 1014.84 1014.97 1014.93 1014.75 1014.48 1014.20 1013.96 1013.80 1013.76 1013.84 1014.02 1014.29 1014.62 1014.97 1015.32 1015.63 1015.90 1016.09 1016.19 1016.19 1016.10 1015.93 1015.72 1015.50 1015.34 1015.30 1015.41 1015.72 1016.25 1016.98 1017.86
1012.89 1013.30 1013.65 1013.88 1013.93 1013.78 1013.47 1013.04 1012.57 1012.16 1011.91 1011.85 1012.02 1012.40 1012.93 1013.54 1014.13 1014.62 1014.95 1015.11 1015.09 1014.94 1014.69 1014.42 1014.19 1014.05 1014.01 1014.08 1014.27 1014.54 1014.86 1015.22 1015.57 1015.90 1016.17 1016.37 1016.49 1016.52 1016.46 1016.33 1016.15 1015.98 1015.86 1015.84 1015.97 1016.27 1016.77 1017.45 1018.27
1012.92 1013.23 1013.49 1013.65 1013.65 1013.49 1013.19 1012.80 1012.39 1012.07 1011.89 1011.91 1012.15 1012.58 1013.15 1013.78 1014.38 1014.89 1015.24 1015.41 1015.42 1015.28 1015.07 1014.83 1014.61 1014.48 1014.44 1014.51 1014.68 1014.93 1015.24 1015.57 1015.90 1016.21 1016.47 1016.67 1016.80 1016.85 1016.82 1016.74 1016.62 1016.51 1016.43 1016.45 1016.60 1016.90 1017.37 1018.00 1018.74
1012.80 1012.97 1013.11 1013.18 1013.13 1012.97 1012.72 1012.42 1012.14 1011.95 1011.91 1012.06 1012.40 1012.91 1013.52 1014.18 1014.79 1015.29 1015.65 1015.83 1015.85 1015.74 1015.56 1015.35 1015.16 1015.05 1015.02 1015.08 1015.23 1015.45 1015.72 1016.01 1016.30 1016.57 1016.80 1016.99 1017.12 1017.19 1017.20 1017.17 1017.11 1017.06 1017.04 1017.10 1017.27 1017.57 1018.00 1018.56 1019.22
Thickness
5776 5783 5788 5786 5776 5770 5773 5781 5786 5787 5795 5805 5810 5808 5806 5804 5800 5793 5814 5822 5820 5815 5806 5796 5793 5790 5789 5787 5786 5783 5780 5778 5775 5772 5770 5767 5765 5763 5761 5760 5758 5756 5755 5753 5752 5751 5750 5748 5747
5778 5782 5781 5777 5766 5762 5770 5780 5779 5786 5795 5805 5809 5807 5804 5807 5813 5811 5814 5816 5815 5811 5802 5796 5789 5787 5786 5784 5782 5780 5778 5775 5772 5770 5767 5765 5763 5761 5759 5757 5756 5754 5753 5752 5750 5749 5747 5746 5744
5775 5778 5773 5768 5763 5768 5770 5776 5781 5790 5800 5801 5802 5808 5805 5803 5809 5811 5814 5813 5810 5805 5799 5792 5786 5783 5782 5780 5779 5777 5775 5772 5770 5767 5765 5762 5760 5759 5757 5755 5754 5752 5751 5749 5748 5747 5745 5743 5742
5771 5768 5766 5760 5759 5769 5772 5776 5782 5786 5795 5801 5801 5799 5805 5807 5811 5814 5812 5810 5806 5802 5796 5787 5782 5779 5778 5776 5775 5773 5771 5769 5766 5764 5762 5760 5758 5756 5755 5753 5752 5750 5749 5747 5745 5744 5743 5741 5739
5767 5762 5751 5751 5758 5766 5772 5777 5781 5782 5788 5795 5798 5795 5794 5803 5811 5811 5807 5806 5802 5798 5792 5783 5777 5775 5774 5772 5771 5769 5768 5765 5763 5761 5759 5757 5755 5753 5752 5751 5749 5747 5746 5744 5743 5741 5740 5739 5737
5755 5755 5745 5747 5753 5761 5769 5777 5779 5782 5788 5795 5796 5793 5790 5799 5803 5803 5803 5801 5799 5794 5788 5778 5772 5770 5769 5768 5766 5765 5763 5761 5759 5758 5755 5753 5752 5751 5749 5748 5746 5745 5743 5742 5740 5739 5737 5736 5735
5749 5747 5746 5750 5749 5753 5763 5775 5776 5779 5783 5790 5799 5790 5786 5792 5797 5800 5799 5797 5795 5790 5785 5776 5771 5766 5764 5763 5761 5760 5758 5757 5755 5753 5752 5750 5748 5747 5746 5745 5743 5742 5740 5739 5737 5736 5735 5733 5733
5753 5747 5741 5744 5745 5750 5764 5772 5777 5778 5781 5794 5798 5789 5783 5786 5794 5795 5793 5791 5788 5785 5781 5776 5771 5767 5763 5759 5757 5755 5753 5752 5750 5748 5747 5746 5744 5743 5742 5741 5740 5738 5737 5735 5734 5733 5732 5731 5730
5746 5737 5735 5741 5744 5751 5763 5765 5774 5783 5784 5787 5792 5793 5792 5790 5791 5787 5784 5782 5780 5778 5777 5774 5771 5767 5763 5760 5754 5751 5748 5747 5745 5744 5742 5741 5743 5742 5740 5740 5737 5735 5734 5733 5731 5730 5729 5728 5727
5737 5731 5738 5746 5751 5753 5758 5761 5767 5775 5775 5776 5779 5783 5787 5786 5784 5781 5778 5775 5773 5771 5771 5771 5770 5765 5763 5760 5753 5751 5748 5746 5745 5745 5742 5742 5743 5742 5741 5737 5733 5732 5731 5730 5729 5727 5726 5726 5729
5735 5733 5739 5744 5750 5752 5754 5758 5766 5766 5763 5769 5771 5773 5778 5778 5778 5777 5775 5773 5771 5768 5767 5768 5765 5762 5761 5757 5753 5751 5749 5746 5744 5743 5740 5740 5739 5738 5737 5734 5731 5730 5729 5730 5727 5726 5728 5729 5731
5730 5733 5738 5742 5747 5748 5750 5755 5758 5758 5760 5771 5774 5775 5774 5772 5772 5772 5769 5768 5766 5763 5761 5762 5760 5757 5756 5754 5751 5748 5746 5743 5742 5739 5737 5736 5735 5734 5735 5732 5733 5731 5731 5730 5730 5729 5730 5729 5728
5725 5729 5735 5741 5745 5747 5748 5749 5749 5751 5760 5767 5769 5768 5767 5767 5765 5766 5765 5763 5760 5757 5755 5754 5753 5750 5748 5747 5745 5744 5742 5740 5738 5735 5733 5733 5732 5731 5732 5731 5729 5730 5730 5728 5727 5728 5727 5725 5725
5729 5731 5734 5739 5742 5743 5742 5745 5746 5746 5755 5758 5759 5759 5761 5760 5759 5757 5755 5753 5751 5749 5747 5747 5745 5743 5741 5739 5737 5737 5737 5735 5734 5732 5731 5729 5729 5728 5728 5727 5726 5726 5726 5726 5724 5724 5723 5722 5721
5728 5724 5729 5736 5739 5742 5742 5733 5736 5742 5749 5748 5750 5750 5750 5750 5749 5747 5745 5744 5745 5743 5742 5740 5739 5737 5734 5732 5731 5730 5730 5730 5729 5728 5726 5725 5725 5724 5723 5723 5722 5722 5721 5720 5719 5718 5718 5717 5716
5723 5721 5721 5729 5736 5739 5735 5725 5731 5739 5741 5739 5740 5739 5738 5736 5738 5737 5737 5736 5737 5736 5734 5733 5733 5730 5727 5726 5725 5726 5724 5723 5723 5722 5721 5720 5719 5718 5718 5719 5718 5717 5716 5716 5715 5713 5713 5712 5710
5716 5717 5720 5721 5732 5736 5735 5726 5726 5734 5734 5731 5731 5731 5729 5727 5726 5726 5727 5727 5727 5726 5725 5724 5724 5723 5721 5720 5719 5719 5717 5717 5717 5716 5716 5715 5715 5714 5714 5714 5713 5712 5712 5711 5711 5709 5707 5705 5703
5710 5716 5715 5718 5725 5729 5727 5721 5721 5726 5728 5725 5723 5721 5719 5716 5714 5715 5716 5717 5718 5717 5716 5716 5715 5714 5714 5714 5712 5710 5710 5710 5710 5710 5709 5709 5709 5708 5709 5708 5709 5708 5707 5706 5706 5703 5701 5700 5697
5713 5714 5713 5715 5722 5723 5718 5714 5714 5717 5719 5716 5714 5712 5709 5707 5707 5707 5707 5707 5708 5707 5706 5706 5705 5705 5705 5705 5704 5702 5703 5703 5703 5703 5702 5703 5703 5703 5703 5704 5704 5703 5703 5702 5701 5699 5695 5693 5692
5707 5707 5708 5709 5716 5716 5711 5708 5710 5710 5708 5706 5704 5703 5702 5700 5699 5697 5698 5698 5697 5696 5696 5696 5695 5695 5696 5697 5696 5696 5696 5696 5697 5696 5695 5695 5696 5696 5698 5698 5698 5699 5698 5698 5697 5695 5691 5688 5689
5703 5707 5709 5708 5709 5712 5707 5702 5704 5704 5704 5700 5700 5698 5695 5691 5689 5688 5688 5687 5687 5687 5686 5687 5686 5686 5687 5688 5689 5689 5688 5689 5689 5689 5689 5688 5688 5689 5690 5691 5691 5692 5692 5692 5692 5691 5689 5685 5684
5700 5712 5710 5706 5704 5707 5706 5703 5706 5704 5698 5696 5694 5692 5688 5685 5683 5681 5679 5678 5677 5677 5677 5677 5677 5677 5678 5679 5680 5680 5679 5680 5682 5681 5681 5680 5680 5681 5682 5683 5685 5686 5687 5687 5687 5688 5686 5684 5681
5707 5713 5710 5707 5705 5703 5705 5701 5712 5705 5697 5694 5690 5686 5682 5678 5675 5672 5670 5668 5668 5668 5669 5669 5669 5669 5670 5671 5671 5672 5673 5674 5674 5673 5672 5672 5673 5673 5674 5675 5677 5679 5680 5682 5683 5683 5682 5682 5680
5708 5706 5704 5705 5706 5691 5702 5697 5704 5706 5702 5696 5688 5680 5673 5670 5666 5664 5662 5661 5660 5660 5660 5660 5659 5660 5661 5662 5663 5664 5665 5664 5664 5665 5665 5664 5664 5665 5666 5667 5669 5671 5672 5674 5676 5677 5676 5677 5677
5703 5695 5687 5686 5688 5692 5702 5694 5700 5701 5700 5695 5685 5675 5667 5663 5659 5655 5653 5651 5650 5649 5649 5649 5650 5650 5650 5652 5653 5654 5655 5655 5656 5656 5656 5656 5656 5656 5657 5659 5661 5663 5664 5666 5668 5670 5671 5672 5671
5700 5699 5686 5677 5682 5693 5692 5690 5699 5694 5690 5687 5681 5670 5661 5655 5651 5647 5643 5641 5640 5639 5639 5639 5640 5640 5640 5641 5643 5644 5645 5647 5647 5647 5648 5647 5647 5647 5648 5650 5651 5654 5656 5658 5660 5662 5663 5664 5664
5697 5699 5705 5692 5691 5685 5694 5695 5688 5683 5679 5675 5670 5662 5654 5648 5642 5638 5635 5632 5631 5630 5630 5630 5630 5630 5630 5631 5632 5634 5635 5636 5636 5636 5637 5637 5637 5638 5639 5640 5642 5644 5646 5648 5650 5651 5653 5654 5655
5705 5702 5693 5687 5673 5673 5685 5686 5691 5681 5676 5671 5664 5656 5648 5640 5634 5630 5626 5624 5622 5622 5621 5620 5620 5620 5620 5621 5622 5624 5624 5625 5625 5626 5626 5626 5626 5627 5629 5631 5633 5634 5636 5637 5639 5641 5642 5643 5644
5692 5690 5690 5691 5687 5674 5670 5682 5693 5687 5680 5671 5662 5652 5641 5633 5627 5622 5618 5615 5614 5614 5613 5611 5611 5611 5610 5610 5611 5612 5613 5614 5615 5615 5615 5615 5616 5618 5619 5621 5623 5625 5626 5627 5629 5630 5632 5633 5633
5695 5692 5688 5675 5674 5677 5674 5677 5681 5680 5675 5666 5654 5642 5632 5624 5619 5614 5610 5608 5606 5604 5603 5602 5601 5601 5600 5600 5600 5601 5602 5603 5603 5603 5603 5605 5606 5608 5610 5612 5614 5615 5616 5618 5619 5621 5622 5623 5623